"SCET";"TARGET";"ELECTRON_DENSITY";"ERROR_FLAG";"ELECTRON_DENSITY_ERROR";"FREQ_FCE";"MEASURED_VALUE";"MEASURED_ITEM";"FREQ_PLASMA";"FREQ_UPPER_HYBRID";"FREQ_R_EQUALS_ZERO";"FREQ_L_EQUALS_ZERO";"ORBIT_NUMBER";"SATURN_RADIUS";"SATURN_IAU_LONGITUDE";"SATURN_SLS4_S_LONGITUDE";"SATURN_SLS4_N_LONGITUDE";"SATURN_SLS5_S_LONGITUDE";"SATURN_SLS5_N_LONGITUDE";"SATURN_LOCAL_TIME";"SATURN_KRONOGRAPHIC_LATITUDE";"SATURN_MAGNETIC_LATITUDE";"SATURN_L";"SATURN_L_OFFSET";"SATURN_SOLAR_EQUATORIAL_X";"SATURN_SOLAR_EQUATORIAL_Y";"SATURN_SOLAR_EQUATORIAL_Z";"SATURN_ALTITUDE";"ENCELADUS_ENCOUNTER_NUMBER";"ENCELADUS_RADIUS";"ENCELADUS_COROTATIONAL_X";"ENCELADUS_COROTATIONAL_Y";"ENCELADUS_COROTATIONAL_Z";"ENCELADUS_TRUE_ANOMALY";"ENCELADUS_PERIAPSIS_TIME";"JUPITER_RADIUS";"JUPITER_SYSTEMIII_LONGITUDE";"JUPITER_MAGNETIC_LATITUDE";"JUPITER_MAGNETIC_LOCAL_TIME";"JUPITER_L";"IO_PHASE";"EARTH_RADIUS";"EARTH_MAGNETIC_LATITUDE";"EARTH_LOCAL_TIME";"EARTH_L"
"[UTC]";"[0=Saturn, 1=Enceladus, 2=Jupiter, 3=Earth]";"[cm-3]";"[0=automated, 1=manual]";"[normalized density error]";"[Hz]";"[Hz]";"[0=upper hybrid frequency, 1=plasma frequency cutoff]";"[Hz]";"[Hz]";"[Hz]";"[Hz}";"[0, A, B, C, 3, 4, ... , 292, 293]";"[Rs where 1Rs=60268km]";"[degrees]";"[degrees]";"[degrees]";"[degrees]";"[degrees]";"[hours]";"[degrees]";"[degrees where offset=2293km north]";"[Rs where 1Rs=60268km]";"[Rs where 1Rs=60268km and offset=2293km north]";"[Rs where 1Rs=60268km]";"[Rs where 1Rs=60268km]";"[Rs where 1Rs=60268km]";"[km where ellipsoid a,b=60268km and c=54364km]";"[E0, E1, E2, ... , E21, E22]";"[Renc where 1Renc=252.1km]";"[Renc where 1Renc=252.1km]";"[Renc where 1Renc=252.1km]";"[Renc where 1Renc=252.1km]";"[degrees]";"[UTC]";"[Rj where 1Rj=71492km]";"[degrees]";"[degrees using JRM09 model]";"[hours using JRM09 model]";"[Rj where 1Rj=71492km]";"[degrees]";"[Re where 1Re=6378.1366km]";"[degrees]";"[hours]";"[Re where 1Re=6378.1366km]"
2006-12-02T15:58:18.750Z;0;2.3900e-03;1;     0.228;  5657.844;    439.000; 1;    439.000;   5674.850;   5691.704;     33.860; 34;   5.687; 150.751; 355.089; 339.399;   1.623; 353.413;   8.412; -54.909; -55.129;  17.210;   5.714;   1.930;  -2.639;  -4.654;;;;;;;;;;;;;;;;;;
2006-12-02T15:58:50.893Z;0;2.3900e-03;1;     0.228;  5665.731;    439.000; 1;    439.000;   5682.713;   5699.544;     33.813; 34;   5.685; 150.936; 355.269; 339.586;   1.809; 353.601;   8.420; -54.905; -55.124;  17.197;   5.711;   1.935;  -2.634;  -4.651;;;;;;;;;;;;;;;;;;
2006-12-02T15:59:23.036Z;0;2.2290e-03;1;     0.534;  5673.697;    424.000; 1;    424.000;   5689.518;   5705.208;     31.511; 34;   5.682; 151.121; 355.450; 339.774;   1.994; 353.790;   8.427; -54.900; -55.119;  17.184;   5.709;   1.939;  -2.629;  -4.648;;;;;;;;;;;;;;;;;;
2006-12-02T15:59:52.500Z;0;2.5340e-03;1;     0.281;  5680.831;    452.000; 1;    452.000;   5698.785;   5716.570;     35.739; 34;   5.679; 151.291; 355.615; 339.945;   2.164; 353.963;   8.435; -54.895; -55.115;  17.173;   5.706;   1.944;  -2.624;  -4.646;;;;;;;;;;;;;;;;;;
2006-12-02T16:00:24.643Z;0;2.6350e-03;1;     0.497;  5688.387;    461.000; 1;    461.000;   5707.037;   5725.505;     37.118; 34;   5.676; 151.476; 355.795; 340.132;   2.346; 354.149;   8.442; -54.890; -55.110;  17.160;   5.703;   1.948;  -2.620;  -4.643;;;;;;;;;;;;;;;;;;
2006-12-02T16:00:59.464Z;0;2.5110e-03;1;     0.283;  5696.712;    450.000; 1;    450.000;   5714.458;   5732.040;     35.328; 34;   5.673; 151.676; 355.990; 340.334;   2.541; 354.350;   8.451; -54.885; -55.105;  17.146;   5.700;   1.953;  -2.614;  -4.641;;;;;;;;;;;;;;;;;;
2006-12-02T16:01:28.929Z;0;2.6930e-03;1;     0.273;  5703.870;    466.000; 1;    466.000;   5722.875;   5741.691;     37.821; 34;   5.671; 151.845; 356.155; 340.505;   2.706; 354.520;   8.458; -54.880; -55.100;  17.134;   5.698;   1.958;  -2.610;  -4.638;;;;;;;;;;;;;;;;;;
2006-12-02T16:02:03.750Z;0;2.5340e-03;1;     0.281;  5712.204;    452.000; 1;    452.000;   5730.060;   5747.749;     35.545; 34;   5.668; 152.045; 356.350; 340.708;   2.900; 354.720;   8.466; -54.874; -55.094;  17.120;   5.695;   1.963;  -2.604;  -4.635;;;;;;;;;;;;;;;;;;
2006-12-02T16:02:33.214Z;0;2.6930e-03;1;     0.273;  5719.217;    466.000; 1;    466.000;   5738.170;   5756.938;     37.721; 34;   5.665; 152.214; 356.515; 340.879;   3.064; 354.889;   8.474; -54.869; -55.089;  17.108;   5.692;   1.967;  -2.600;  -4.633;;;;;;;;;;;;;;;;;;
2006-12-02T16:03:05.357Z;0;2.3900e-03;1;     0.228;  5727.042;    439.000; 1;    439.000;   5743.843;   5760.498;     33.456; 34;   5.662; 152.399; 356.695; 341.065;   3.243; 355.072;   8.481; -54.864; -55.084;  17.095;   5.689;   1.971;  -2.595;  -4.631;;;;;;;;;;;;;;;;;;
2006-12-02T16:03:37.500Z;0;2.7160e-03;1;     0.272;  5734.942;    468.000; 1;    468.000;   5754.006;   5772.882;     37.940; 34;   5.660; 152.583; 356.875; 341.252;   3.421; 355.256;   8.489; -54.858; -55.078;  17.082;   5.687;   1.976;  -2.590;  -4.628;;;;;;;;;;;;;;;;;;
2006-12-02T16:04:12.321Z;0;2.5340e-03;1;     0.281;  5743.427;    452.000; 1;    452.000;   5761.186;   5778.781;     35.354; 34;   5.657; 152.783; 357.069; 341.453;   3.613; 355.454;   8.498; -54.852; -55.072;  17.067;   5.684;   1.981;  -2.585;  -4.625;;;;;;;;;;;;;;;;;;
2006-12-02T16:04:41.786Z;0;2.7160e-03;1;     0.272;  5750.553;    468.000; 1;    468.000;   5769.565;   5788.392;     37.838; 34;   5.654; 152.952; 357.234; 341.624;   3.776; 355.622;   8.505; -54.846; -55.067;  17.055;   5.681;   1.985;  -2.580;  -4.623;;;;;;;;;;;;;;;;;;
2006-12-02T16:05:16.607Z;0;2.5110e-03;1;     0.509;  5758.811;    450.000; 1;    450.000;   5776.366;   5793.762;     34.951; 34;   5.651; 153.151; 357.428; 341.826;   3.968; 355.820;   8.513; -54.839; -55.060;  17.041;   5.678;   1.990;  -2.575;  -4.620;;;;;;;;;;;;;;;;;;
2006-12-02T16:05:48.214Z;0;2.4890e-03;1;     0.511;  5766.292;    448.000; 1;    448.000;   5783.669;   5800.891;     34.599; 34;   5.648; 153.332; 357.604; 342.009;   4.142; 355.999;   8.521; -54.833; -55.054;  17.027;   5.675;   1.995;  -2.570;  -4.617;;;;;;;;;;;;;;;;;;
2006-12-02T16:06:20.357Z;0;2.6930e-03;1;     0.491;  5773.977;    466.000; 1;    466.000;   5792.750;   5811.344;     37.368; 34;   5.646; 153.516; 357.784; 342.195;   4.318; 356.180;   8.529; -54.827; -55.048;  17.013;   5.672;   1.999;  -2.565;  -4.615;;;;;;;;;;;;;;;;;;
2006-12-02T16:06:52.500Z;0;2.8220e-03;1;     0.814;  5781.794;    477.000; 1;    477.000;   5801.437;   5820.882;     39.088; 34;   5.643; 153.700; 357.963; 342.381;   4.494; 356.362;   8.537; -54.821; -55.042;  17.000;   5.670;   2.004;  -2.560;  -4.612;;;;;;;;;;;;;;;;;;
2006-12-02T16:07:24.643Z;0;2.8220e-03;1;     0.270;  5789.783;    477.000; 1;    477.000;   5809.398;   5828.818;     39.035; 34;   5.640; 153.884; 358.142; 342.566;   4.669; 356.542;   8.545; -54.814; -55.035;  16.986;   5.667;   2.009;  -2.555;  -4.609;;;;;;;;;;;;;;;;;;
2006-12-02T16:07:56.786Z;0;2.8220e-03;1;     0.270;  5797.608;    477.000; 1;    477.000;   5817.198;   5836.592;     38.983; 34;   5.637; 154.068; 358.321; 342.752;   4.845; 356.723;   8.552; -54.807; -55.029;  16.972;   5.664;   2.013;  -2.550;  -4.607;;;;;;;;;;;;;;;;;;
2006-12-02T16:08:26.250Z;0;3.0020e-03;1;     0.261;  5804.633;    492.000; 1;    492.000;   5825.447;   5846.040;     41.406; 34;   5.635; 154.236; 358.485; 342.922;   5.005; 356.888;   8.560; -54.801; -55.023;  16.959;   5.662;   2.017;  -2.545;  -4.604;;;;;;;;;;;;;;;;;;
2006-12-02T16:08:58.393Z;0;3.0260e-03;1;     0.522;  5812.243;    494.000; 1;    494.000;   5833.198;   5853.930;     41.688; 34;   5.632; 154.419; 358.664; 343.108;   5.179; 357.068;   8.568; -54.794; -55.016;  16.945;   5.659;   2.022;  -2.540;  -4.602;;;;;;;;;;;;;;;;;;
2006-12-02T16:09:30.536Z;0;3.0260e-03;1;     0.522;  5819.788;    494.000; 1;    494.000;   5840.716;   5861.422;     41.634; 34;   5.629; 154.603; 358.843; 343.294;   5.353; 357.247;   8.575; -54.787; -55.009;  16.931;   5.656;   2.027;  -2.535;  -4.599;;;;;;;;;;;;;;;;;;
2006-12-02T16:10:02.679Z;0;3.2000e-03;1;     0.567;  5827.526;    508.000; 1;    508.000;   5849.626;   5871.479;     43.952; 34;   5.626; 154.786; 359.022; 343.479;   5.526; 357.427;   8.583; -54.780; -55.002;  16.916;   5.653;   2.031;  -2.530;  -4.596;;;;;;;;;;;;;;;;;;
2006-12-02T16:10:32.143Z;0;3.0260e-03;1;     0.260;  5834.713;    494.000; 1;    494.000;   5855.589;   5876.243;     41.529; 34;   5.624; 154.955; 359.185; 343.649;   5.688; 357.596;   8.590; -54.773; -54.995;  16.903;   5.651;   2.035;  -2.526;  -4.594;;;;;;;;;;;;;;;;;;
2006-12-02T16:11:04.286Z;0;3.1880e-03;1;     0.258;  5842.559;    507.000; 1;    507.000;   5864.516;   5886.229;     43.670; 34;   5.621; 155.138; 359.364; 343.834;   5.864; 357.781;   8.598; -54.766; -54.988;  16.889;   5.648;   2.040;  -2.521;  -4.591;;;;;;;;;;;;;;;;;;
2006-12-02T16:11:39.107Z;0;3.0260e-03;1;     0.260;  5851.044;    494.000; 1;    494.000;   5871.861;   5892.459;     41.415; 34;   5.618; 155.336; 359.558; 344.035;   6.055; 357.981;   8.607; -54.758; -54.980;  16.873;   5.645;   2.045;  -2.516;  -4.588;;;;;;;;;;;;;;;;;;
2006-12-02T16:12:11.250Z;0;3.0260e-03;1;     0.260;  5858.643;    494.000; 1;    494.000;   5879.433;   5900.004;     41.362; 34;   5.616; 155.519; 359.736; 344.220;   6.231; 358.166;   8.615; -54.750; -54.973;  16.858;   5.642;   2.050;  -2.511;  -4.586;;;;;;;;;;;;;;;;;;
2006-12-02T16:12:43.393Z;0;3.2000e-03;1;     0.258;  5866.207;    508.000; 1;    508.000;   5888.161;   5909.873;     43.667; 34;   5.613; 155.703; 359.914; 344.405;   6.407; 358.352;   8.623; -54.742; -54.965;  16.844;   5.640;   2.054;  -2.506;  -4.583;;;;;;;;;;;;;;;;;;
2006-12-02T16:13:18.214Z;0;3.2000e-03;1;     0.258;  5874.610;    508.000; 1;    508.000;   5896.534;   5918.215;     43.605; 34;   5.610; 155.901;   0.108; 344.606;   6.598; 358.553;   8.631; -54.734; -54.957;  16.828;   5.637;   2.059;  -2.500;  -4.580;;;;;;;;;;;;;;;;;;
2006-12-02T16:13:45.000Z;0;3.0260e-03;1;     0.260;  5881.090;    494.000; 1;    494.000;   5901.801;   5922.297;     41.206; 34;   5.608; 156.053;   0.256; 344.760;   6.744; 358.708;   8.638; -54.727; -54.950;  16.815;   5.634;   2.063;  -2.496;  -4.578;;;;;;;;;;;;;;;;;;
2006-12-02T16:14:19.821Z;0;3.0260e-03;1;     0.260;  5889.458;    494.000; 1;    494.000;   5910.139;   5930.606;     41.149; 34;   5.605; 156.251;   0.449; 344.960;   6.935; 358.909;   8.646; -54.718; -54.941;  16.799;   5.631;   2.068;  -2.491;  -4.575;;;;;;;;;;;;;;;;;;
2006-12-02T16:14:49.286Z;0;3.2000e-03;1;     0.258;  5896.547;    508.000; 1;    508.000;   5918.389;   5939.992;     43.445; 34;   5.602; 156.419;   0.612; 345.130;   7.096; 359.080;   8.654; -54.711; -54.934;  16.785;   5.629;   2.072;  -2.486;  -4.573;;;;;;;;;;;;;;;;;;
2006-12-02T16:15:24.107Z;0;3.2000e-03;1;     0.258;  5904.952;    508.000; 1;    508.000;   5926.763;   5948.336;     43.384; 34;   5.599; 156.617;   0.805; 345.330;   7.286; 359.282;   8.662; -54.701; -54.925;  16.769;   5.626;   2.077;  -2.481;  -4.570;;;;;;;;;;;;;;;;;;
2006-12-02T16:15:53.571Z;0;3.0020e-03;1;     0.524;  5912.017;    492.000; 1;    492.000;   5932.454;   5952.682;     40.665; 34;   5.597; 156.784;   0.968; 345.499;   7.447; 359.453;   8.670; -54.694; -54.917;  16.755;   5.623;   2.081;  -2.476;  -4.567;;;;;;;;;;;;;;;;;;
2006-12-02T16:16:25.714Z;0;3.0020e-03;1;     0.524;  5919.667;    492.000; 1;    492.000;   5940.078;   5960.280;     40.613; 34;   5.594; 156.967;   1.146; 345.684;   7.623; 359.640;   8.678; -54.685; -54.909;  16.740;   5.621;   2.086;  -2.471;  -4.564;;;;;;;;;;;;;;;;;;
2006-12-02T16:17:00.536Z;0;3.9450e-03;1;     0.520;  5928.020;    564.000; 1;    564.000;   5954.789;   5981.202;     53.183; 34;   5.591; 157.165;   1.339; 345.884;   7.813; 359.842;   8.686; -54.675; -54.900;  16.723;   5.618;   2.091;  -2.466;  -4.561;;;;;;;;;;;;;;;;;;
2006-12-02T16:18:02.143Z;0;4.5540e-03;1;     0.762;  5942.860;    606.000; 1;    606.000;   5973.678;   6004.025;     61.165; 34;   5.586; 157.514;   1.680; 346.237;   8.149;   0.203;   8.701; -54.658; -54.883;  16.693;   5.613;   2.099;  -2.456;  -4.556;;;;;;;;;;;;;;;;;;
2006-12-02T16:18:36.964Z;0;6.0760e-03;1;     0.765;  5951.195;    700.000; 1;    700.000;   5992.222;   6032.422;     81.228; 34;   5.583; 157.712;   1.872; 346.437;   8.339;   0.406;   8.710; -54.648; -54.873;  16.676;   5.610;   2.104;  -2.451;  -4.553;;;;;;;;;;;;;;;;;;
2006-12-02T16:19:09.107Z;0;4.9850e-03;1;     0.783;  5958.694;    634.000; 1;    634.000;   5992.328;   6025.404;     66.710; 34;   5.580; 157.894;   2.050; 346.621;   8.514;   0.594;   8.718; -54.639; -54.864;  16.661;   5.607;   2.109;  -2.446;  -4.551;;;;;;;;;;;;;;;;;;
2006-12-02T16:19:41.250Z;0;6.0070e-03;1;     0.769;  5966.169;    696.000; 1;    696.000;   6006.629;   6046.288;     80.118; 34;   5.577; 158.076;   2.227; 346.805;   8.689;   0.782;   8.726; -54.630; -54.855;  16.645;   5.604;   2.113;  -2.441;  -4.548;;;;;;;;;;;;;;;;;;
2006-12-02T16:20:48.214Z;0;9.3430e-03;1;     0.777;  5982.283;    868.000; 1;    868.000;   6044.926;   6105.681;    123.397; 34;   5.572; 158.456;   2.597; 347.189;   9.058;   1.170;   8.742; -54.610; -54.835;  16.612;   5.599;   2.123;  -2.430;  -4.542;;;;;;;;;;;;;;;;;;
2006-12-02T16:21:17.679Z;0;1.2950e-02;1;     0.759;  5989.176;   1022.000; 1;   1022.000;   6075.748;   6158.769;    169.593; 34;   5.569; 158.623;   2.760; 347.358;   9.221;   1.341;   8.750; -54.601; -54.826;  16.597;   5.596;   2.127;  -2.425;  -4.540;;;;;;;;;;;;;;;;;;
2006-12-02T16:21:49.821Z;0;1.0310e-02;1;     0.828;  5996.794;    912.000; 1;    912.000;   6065.747;   6132.425;    135.631; 34;   5.567; 158.805;   2.937; 347.542;   9.400;   1.526;   8.758; -54.591; -54.816;  16.581;   5.593;   2.132;  -2.420;  -4.537;;;;;;;;;;;;;;;;;;
2006-12-02T16:22:21.964Z;0;1.1720e-02;1;     0.562;  6004.654;    972.000; 1;    972.000;   6082.816;   6158.076;    153.422; 34;   5.564; 158.987;   3.114; 347.726;   9.578;   1.712;   8.766; -54.581; -54.806;  16.565;   5.591;   2.136;  -2.415;  -4.534;;;;;;;;;;;;;;;;;;
2006-12-02T16:22:51.429Z;0;9.9780e-03;1;     0.511;  6011.857;    897.000; 1;    897.000;   6078.407;   6142.840;    130.983; 34;   5.561; 159.153;   3.276; 347.894;   9.742;   1.882;   8.773; -54.571; -54.797;  16.550;   5.588;   2.140;  -2.411;  -4.532;;;;;;;;;;;;;;;;;;
2006-12-02T16:23:26.250Z;0;1.0020e-02;1;     0.238;  6020.321;    899.000; 1;    899.000;   6087.074;   6151.700;    131.378; 34;   5.558; 159.350;   3.468; 348.093;   9.936;   2.083;   8.782; -54.560; -54.786;  16.532;   5.585;   2.145;  -2.405;  -4.529;;;;;;;;;;;;;;;;;;
2006-12-02T16:24:01.071Z;0;7.2950e-03;1;     0.267;  6028.600;    767.000; 1;    767.000;   6077.195;   6124.652;     96.053; 34;   5.556; 159.547;   3.660; 348.293;  10.131;   2.284;   8.790; -54.549; -54.775;  16.514;   5.582;   2.150;  -2.400;  -4.526;;;;;;;;;;;;;;;;;;
2006-12-02T16:24:33.214Z;0;7.1440e-03;1;     0.269;  6036.101;    759.000; 1;    759.000;   6083.633;   6130.077;     93.976; 34;   5.553; 159.729;   3.837; 348.476;  10.310;   2.469;   8.798; -54.538; -54.765;  16.498;   5.580;   2.155;  -2.395;  -4.523;;;;;;;;;;;;;;;;;;
2006-12-02T16:25:00.000Z;0;6.3930e-03;1;     0.239;  6042.411;    718.000; 1;    718.000;   6084.920;   6126.556;     84.146; 34;   5.551; 159.880;   3.985; 348.629;  10.460;   2.624;   8.805; -54.529; -54.756;  16.484;   5.577;   2.159;  -2.391;  -4.520;;;;;;;;;;;;;;;;;;
2006-12-02T16:25:34.821Z;0;7.3910e-03;1;     0.760;  6050.627;    772.000; 1;    772.000;   6099.678;   6147.573;     96.946; 34;   5.548; 160.077;   4.176; 348.828;  10.655;   2.824;   8.814; -54.518; -54.745;  16.466;   5.575;   2.163;  -2.385;  -4.517;;;;;;;;;;;;;;;;;;
2006-12-02T16:26:39.107Z;0;1.3000e-02;1;     0.250;  6065.939;   1024.000; 1;   1024.000;   6151.764;   6234.138;    168.199; 34;   5.542; 160.440;   4.530; 349.195;  11.016;   3.194;   8.830; -54.496; -54.723;  16.432;   5.569;   2.172;  -2.375;  -4.512;;;;;;;;;;;;;;;;;;
2006-12-02T16:27:08.571Z;0;1.2570e-02;1;     0.543;  6072.842;   1007.000; 1;   1007.000;   6155.766;   6235.468;    162.626; 34;   5.540; 160.607;   4.692; 349.364;  11.181;   3.364;   8.837; -54.485; -54.713;  16.417;   5.567;   2.177;  -2.370;  -4.509;;;;;;;;;;;;;;;;;;
2006-12-02T16:27:40.714Z;0;1.4840e-02;1;     0.513;  6080.354;   1094.000; 1;   1094.000;   6177.989;   6271.201;    190.846; 34;   5.537; 160.788;   4.869; 349.547;  11.362;   3.549;   8.845; -54.474; -54.702;  16.400;   5.564;   2.181;  -2.365;  -4.506;;;;;;;;;;;;;;;;;;
2006-12-02T16:28:12.857Z;0;1.1330e-02;1;     0.492;  6088.012;    956.000; 1;    956.000;   6162.615;   6234.603;    146.591; 34;   5.535; 160.969;   5.045; 349.730;  11.544;   3.734;   8.853; -54.463; -54.690;  16.383;   5.561;   2.186;  -2.360;  -4.504;;;;;;;;;;;;;;;;;;
2006-12-02T16:29:17.143Z;0;1.0960e-02;1;     0.266;  6103.547;    940.000; 1;    940.000;   6175.507;   6245.035;    141.488; 34;   5.529; 161.332;   5.399; 350.097;  11.907;   4.104;   8.869; -54.439; -54.667;  16.348;   5.556;   2.195;  -2.350;  -4.498;;;;;;;;;;;;;;;;;;
2006-12-02T16:29:46.607Z;0;9.1080e-03;1;     0.249;  6110.728;    857.000; 1;    857.000;   6170.530;   6228.643;    117.915; 34;   5.527; 161.498;   5.560; 350.265;  12.073;   4.273;   8.876; -54.429; -54.657;  16.332;   5.554;   2.199;  -2.346;  -4.495;;;;;;;;;;;;;;;;;;
2006-12-02T16:30:21.429Z;0;1.1620e-02;1;     0.265;  6119.212;    968.000; 1;    968.000;   6195.304;   6268.689;    149.477; 34;   5.524; 161.694;   5.751; 350.463;  12.267;   4.472;   8.885; -54.416; -54.644;  16.314;   5.551;   2.204;  -2.340;  -4.492;;;;;;;;;;;;;;;;;;
2006-12-02T16:30:53.571Z;0;1.1640e-02;1;     0.800;  6126.916;    969.000; 1;    969.000;   6203.068;   6276.515;    149.599; 34;   5.521; 161.875;   5.928; 350.646;  12.443;   4.657;   8.893; -54.403; -54.632;  16.296;   5.548;   2.208;  -2.335;  -4.489;;;;;;;;;;;;;;;;;;
2006-12-02T16:31:25.714Z;0;1.2280e-02;1;     0.549;  6134.450;    995.000; 1;    995.000;   6214.620;   6291.801;    157.352; 34;   5.519; 162.056;   6.104; 350.829;  12.619;   4.842;   8.901; -54.391; -54.620;  16.279;   5.545;   2.213;  -2.330;  -4.487;;;;;;;;;;;;;;;;;;
2006-12-02T16:31:55.179Z;0;1.1570e-02;1;     0.803;  6141.403;    966.000; 1;    966.000;   6216.911;   6289.764;    148.361; 34;   5.516; 162.222;   6.266; 350.997;  12.780;   5.011;   8.909; -54.380; -54.609;  16.262;   5.543;   2.217;  -2.325;  -4.484;;;;;;;;;;;;;;;;;;
2006-12-02T16:32:27.321Z;0;1.2330e-02;1;     0.548;  6149.031;    997.000; 1;    997.000;   6229.333;   6306.644;    157.613; 34;   5.514; 162.403;   6.442; 351.180;  12.956;   5.196;   8.917; -54.367; -54.596;  16.245;   5.540;   2.221;  -2.320;  -4.481;;;;;;;;;;;;;;;;;;
2006-12-02T16:33:02.143Z;0;1.1310e-02;1;     0.262;  6157.288;    955.000; 1;    955.000;   6230.909;   6302.008;    144.720; 34;   5.511; 162.599;   6.633; 351.379;  13.146;   5.396;   8.925; -54.354; -54.583;  16.225;   5.537;   2.226;  -2.315;  -4.478;;;;;;;;;;;;;;;;;;
2006-12-02T16:33:31.607Z;0;1.2700e-02;1;     0.253;  6164.274;   1012.000; 1;   1012.000;   6246.792;   6326.164;    161.890; 34;   5.508; 162.765;   6.795; 351.546;  13.306;   5.565;   8.933; -54.342; -54.571;  16.209;   5.535;   2.230;  -2.310;  -4.475;;;;;;;;;;;;;;;;;;
2006-12-02T16:34:14.464Z;0;1.2930e-02;1;     0.759;  6174.469;   1021.000; 1;   1021.000;   6258.315;   6338.920;    164.451; 34;   5.505; 163.006;   7.030; 351.790;  13.538;   5.811;   8.944; -54.325; -54.554;  16.185;   5.532;   2.236;  -2.303;  -4.472;;;;;;;;;;;;;;;;;;
2006-12-02T16:34:35.893Z;0;1.3030e-02;1;     0.756;  6179.562;   1025.000; 1;   1025.000;   6263.994;   6345.142;    165.579; 34;   5.503; 163.127;   7.147; 351.912;  13.654;   5.934;   8.949; -54.316; -54.546;  16.173;   5.530;   2.239;  -2.300;  -4.470;;;;;;;;;;;;;;;;;;
2006-12-02T16:35:08.036Z;0;1.2650e-02;1;     0.254;  6187.108;   1010.000; 1;   1010.000;   6269.004;   6347.810;    160.701; 34;   5.500; 163.308;   7.323; 352.095;  13.828;   6.118;   8.957; -54.303; -54.533;  16.155;   5.527;   2.244;  -2.295;  -4.467;;;;;;;;;;;;;;;;;;
2006-12-02T16:35:40.179Z;0;1.1930e-02;1;     0.261;  6194.596;    981.000; 1;    981.000;   6271.792;   6346.239;    151.643; 34;   5.498; 163.489;   7.499; 352.277;  14.001;   6.303;   8.965; -54.290; -54.520;  16.137;   5.525;   2.248;  -2.290;  -4.464;;;;;;;;;;;;;;;;;;
2006-12-02T16:36:09.643Z;0;1.2010e-02;1;     0.556;  6201.423;    984.000; 1;    984.000;   6279.005;   6353.812;    152.390; 34;   5.495; 163.654;   7.660; 352.445;  14.160;   6.472;   8.972; -54.277; -54.508;  16.120;   5.522;   2.252;  -2.285;  -4.461;;;;;;;;;;;;;;;;;;
2006-12-02T16:36:41.786Z;0;1.2980e-02;1;     0.250;  6208.857;   1023.000; 1;   1023.000;   6292.570;   6373.068;    164.211; 34;   5.493; 163.835;   7.836; 352.628;  14.333;   6.656;   8.980; -54.264; -54.494;  16.102;   5.519;   2.257;  -2.280;  -4.458;;;;;;;;;;;;;;;;;;
2006-12-02T16:37:16.607Z;0;1.3390e-02;1;     0.286;  6216.981;   1039.000; 1;   1039.000;   6303.204;   6386.025;    169.044; 34;   5.490; 164.031;   8.027; 352.826;  14.520;   6.855;   8.989; -54.249; -54.480;  16.082;   5.517;   2.262;  -2.274;  -4.455;;;;;;;;;;;;;;;;;;
2006-12-02T16:37:48.750Z;0;1.4070e-02;1;     0.279;  6224.566;   1065.000; 1;   1065.000;   6315.017;   6401.740;    177.174; 34;   5.487; 164.211;   8.203; 353.008;  14.692;   7.040;   8.997; -54.235; -54.466;  16.064;   5.514;   2.266;  -2.269;  -4.452;;;;;;;;;;;;;;;;;;
2006-12-02T16:38:18.214Z;0;1.3360e-02;1;     0.541;  6231.630;   1038.000; 1;   1038.000;   6317.488;   6399.981;    168.351; 34;   5.485; 164.377;   8.364; 353.175;  14.849;   7.208;   9.005; -54.222; -54.453;  16.047;   5.512;   2.270;  -2.265;  -4.450;;;;;;;;;;;;;;;;;;
2006-12-02T16:38:58.393Z;0;1.2800e-02;1;     0.538;  6241.229;   1016.000; 1;   1016.000;   6323.384;   6402.457;    161.228; 34;   5.482; 164.602;   8.584; 353.404;  15.064;   7.439;   9.015; -54.205; -54.436;  16.023;   5.508;   2.276;  -2.258;  -4.446;;;;;;;;;;;;;;;;;;
2006-12-02T16:39:22.500Z;0;1.3390e-02;1;     0.540;  6246.934;   1039.000; 1;   1039.000;   6332.749;   6415.209;    168.275; 34;   5.480; 164.738;   8.716; 353.541;  15.192;   7.577;   9.021; -54.194; -54.425;  16.009;   5.506;   2.279;  -2.254;  -4.444;;;;;;;;;;;;;;;;;;
2006-12-02T16:39:57.321Z;0;1.2280e-02;1;     0.258;  6255.079;    995.000; 1;    995.000;   6333.722;   6409.540;    154.461; 34;   5.477; 164.933;   8.906; 353.738;  15.377;   7.776;   9.030; -54.178; -54.410;  15.989;   5.504;   2.284;  -2.249;  -4.441;;;;;;;;;;;;;;;;;;
2006-12-02T16:40:29.464Z;0;1.3720e-02;1;     0.282;  6262.497;   1052.000; 1;   1052.000;   6350.242;   6434.492;    171.996; 34;   5.474; 165.114;   9.082; 353.921;  15.553;   7.957;   9.038; -54.164; -54.396;  15.970;   5.501;   2.289;  -2.244;  -4.438;;;;;;;;;;;;;;;;;;
2006-12-02T16:40:58.929Z;0;1.3360e-02;1;     0.286;  6269.350;   1038.000; 1;   1038.000;   6354.698;   6436.739;    167.390; 34;   5.472; 165.279;   9.243; 354.088;  15.714;   8.123;   9.045; -54.150; -54.382;  15.953;   5.499;   2.293;  -2.239;  -4.435;;;;;;;;;;;;;;;;;;
2006-12-02T16:41:28.393Z;0;1.4460e-02;1;     0.520;  6276.217;   1080.000; 1;   1080.000;   6368.461;   6456.862;    180.645; 34;   5.469; 165.445;   9.404; 354.255;  15.876;   8.289;   9.052; -54.137; -54.369;  15.936;   5.496;   2.297;  -2.234;  -4.432;;;;;;;;;;;;;;;;;;
2006-12-02T16:42:00.536Z;0;1.3720e-02;1;     0.282;  6283.918;   1052.000; 1;   1052.000;   6371.368;   6455.357;    171.440; 34;   5.467; 165.625;   9.580; 354.437;  16.053;   8.469;   9.061; -54.122; -54.354;  15.917;   5.494;   2.301;  -2.229;  -4.429;;;;;;;;;;;;;;;;;;
2006-12-02T16:42:35.357Z;0;1.2980e-02;1;     0.250;  6292.390;   1023.000; 1;   1023.000;   6375.006;   6454.529;    162.139; 34;   5.464; 165.820;   9.770; 354.635;  16.245;   8.664;   9.069; -54.106; -54.338;  15.896;   5.491;   2.306;  -2.224;  -4.426;;;;;;;;;;;;;;;;;;